Location: Triton
(47.6048°N, 122.9899°W)
Time: 14:37:55
(UTC+00:00)

ARIANE 6 FM1 Upper Stage - Pass Details

Date: 18 February 2026
Orbit: 523 x 607 km, 62.0° (Epoch: 8 March)

Event Time Altitude Azimuth Distance (km) Brightness Sun altitude
Rises 03:14:45 0° 314° (NW) 2,660 6.9 -16.8°
Reaches altitude 10° 03:16:58 10° 310° (NW) 1,768 5.9 -17.2°
Maximum altitude 03:20:51 57° 232° (SW) 624 3.1 -17.8°
Enters shadow 03:23:38 18° 158° (SSE) 1,346 4.3 -18.3°
